Time,TemperatureF,DewpointF,PressureIn,WindDirection,WindDirectionDegrees,WindSpeedMPH,WindSpeedGustMPH,Humidity,HourlyPrecipIn,Conditions,Clouds,dailyrainin,SoftwareType,DateUTC
2013-08-23 00:00:00,84.0,69.6,29.94,SE,126,1.0,1.0,62,0.00,,,0.00,Wunderground v.1.15,2013-08-23 05:00:00,
2013-08-23 00:10:00,83.8,69.4,29.94,SE,126,0.0,5.0,62,0.00,,,0.00,Wunderground v.1.15,2013-08-23 05:10:00,
2013-08-23 00:15:00,83.7,69.3,29.94,SE,126,1.0,5.0,62,0.00,,,0.00,Wunderground v.1.15,2013-08-23 05:15:00,
2013-08-23 00:25:00,83.3,69.4,29.94,SE,126,0.0,0.0,63,0.00,,,0.00,Wunderground v.1.15,2013-08-23 05:25:00,
2013-08-23 00:30:00,83.1,69.7,29.94,SE,126,0.0,0.0,64,0.00,,,0.00,Wunderground v.1.15,2013-08-23 05:30:00,
2013-08-23 00:35:00,83.0,69.6,29.94,SE,126,0.0,0.0,64,0.00,,,0.00,Wunderground v.1.15,2013-08-23 05:35:00,
2013-08-23 00:40:00,82.8,69.4,29.94,SE,126,0.0,0.0,64,0.00,,,0.00,Wunderground v.1.15,2013-08-23 05:40:00,
2013-08-23 00:50:00,82.5,69.5,29.94,SE,126,0.0,0.0,65,0.00,,,0.00,Wunderground v.1.15,2013-08-23 05:50:00,
2013-08-23 00:55:00,82.4,69.4,29.94,SE,126,1.0,1.0,65,0.00,,,0.00,Wunderground v.1.15,2013-08-23 05:55:00,
2013-08-23 01:00:00,82.2,69.7,29.94,SE,126,0.0,4.0,66,0.00,,,0.00,Wunderground v.1.15,2013-08-23 06:00:00,
2013-08-23 01:10:00,82.0,69.5,29.94,SE,126,1.0,1.0,66,0.00,,,0.00,Wunderground v.1.15,2013-08-23 06:10:00,
2013-08-23 01:15:00,81.9,69.9,29.93,SE,126,1.0,6.0,67,0.00,,,0.00,Wunderground v.1.15,2013-08-23 06:15:00,
2013-08-23 01:20:00,81.9,69.9,29.93,SE,145,2.0,2.0,67,0.00,,,0.00,Wunderground v.1.15,2013-08-23 06:20:00,
2013-08-23 01:25:00,82.0,70.0,29.93,SE,145,2.0,2.0,67,0.00,,,0.00,Wunderground v.1.15,2013-08-23 06:25:00,
2013-08-23 01:35:00,82.1,70.1,29.94,SE,143,2.0,2.0,67,0.00,,,0.00,Wunderground v.1.15,2013-08-23 06:35:00,
2013-08-23 01:40:00,82.2,69.7,29.93,SSE,150,1.0,4.0,66,0.00,,,0.00,Wunderground v.1.15,2013-08-23 06:40:00,
2013-08-23 01:45:00,82.2,69.7,29.94,SSE,155,1.0,5.0,66,0.00,,,0.00,Wunderground v.1.15,2013-08-23 06:45:00,
2013-08-23 01:50:00,82.3,69.8,29.93,SSE,155,2.0,6.0,66,0.00,,,0.00,Wunderground v.1.15,2013-08-23 06:50:00,
2013-08-23 01:55:00,82.2,69.7,29.93,SSE,156,2.0,6.0,66,0.00,,,0.00,Wunderground v.1.15,2013-08-23 06:55:00,
2013-08-23 02:00:00,82.2,69.7,29.93,SSE,161,2.0,2.0,66,0.00,,,0.00,Wunderground v.1.15,2013-08-23 07:00:00,
2013-08-23 02:10:00,82.2,69.7,29.93,South,171,3.0,3.0,66,0.00,,,0.00,Wunderground v.1.15,2013-08-23 07:10:00,
2013-08-23 02:15:00,82.3,69.8,29.93,South,172,3.0,3.0,66,0.00,,,0.00,Wunderground v.1.15,2013-08-23 07:15:00,
2013-08-23 02:25:00,82.3,69.8,29.93,SSE,162,3.0,5.0,66,0.00,,,0.00,Wunderground v.1.15,2013-08-23 07:25:00,
2013-08-23 02:30:00,82.3,69.8,29.93,SSE,165,3.0,3.0,66,0.00,,,0.00,Wunderground v.1.15,2013-08-23 07:30:00,
2013-08-23 02:35:00,82.2,69.7,29.93,SSE,163,2.0,3.0,66,0.00,,,0.00,Wunderground v.1.15,2013-08-23 07:35:00,
2013-08-23 02:40:00,82.1,69.6,29.93,SSE,167,1.0,1.0,66,0.00,,,0.00,Wunderground v.1.15,2013-08-23 07:40:00,
2013-08-23 02:50:00,82.0,69.5,29.93,South,171,0.0,1.0,66,0.00,,,0.00,Wunderground v.1.15,2013-08-23 07:50:00,
2013-08-23 02:55:00,81.8,69.8,29.93,South,173,1.0,1.0,67,0.00,,,0.00,Wunderground v.1.15,2013-08-23 07:55:00,
2013-08-23 03:00:00,81.6,69.6,29.93,SSW,196,1.0,8.0,67,0.00,,,0.00,Wunderground v.1.15,2013-08-23 08:00:00,
2013-08-23 03:10:00,81.5,69.5,29.92,South,175,1.0,1.0,67,0.00,,,0.00,Wunderground v.1.15,2013-08-23 08:10:00,
2013-08-23 03:15:00,81.4,69.4,29.92,South,175,1.0,1.0,67,0.00,,,0.00,Wunderground v.1.15,2013-08-23 08:15:00,
2013-08-23 03:20:00,81.3,69.3,29.92,South,180,0.0,0.0,67,0.00,,,0.00,Wunderground v.1.15,2013-08-23 08:20:00,
2013-08-23 03:30:00,81.0,69.4,29.92,South,180,0.0,5.0,68,0.00,,,0.00,Wunderground v.1.15,2013-08-23 08:30:00,
2013-08-23 03:35:00,80.9,69.3,29.92,South,180,0.0,5.0,68,0.00,,,0.00,Wunderground v.1.15,2013-08-23 08:35:00,
2013-08-23 03:40:00,80.7,69.2,29.92,South,180,0.0,0.0,68,0.00,,,0.00,Wunderground v.1.15,2013-08-23 08:40:00,
2013-08-23 03:45:00,80.6,69.5,29.92,South,180,0.0,0.0,69,0.00,,,0.00,Wunderground v.1.15,2013-08-23 08:45:00,
2013-08-23 03:55:00,80.4,69.3,29.92,South,180,0.0,0.0,69,0.00,,,0.00,Wunderground v.1.15,2013-08-23 08:55:00,
2013-08-23 04:00:00,80.3,69.2,29.92,South,180,0.0,0.0,69,0.00,,,0.00,Wunderground v.1.15,2013-08-23 09:00:00,
2013-08-23 04:10:00,80.1,69.4,29.92,South,180,0.0,0.0,70,0.00,,,0.00,Wunderground v.1.15,2013-08-23 09:10:00,
2013-08-23 04:15:00,80.1,69.4,29.92,South,180,0.0,0.0,70,0.00,,,0.00,Wunderground v.1.15,2013-08-23 09:15:00,
2013-08-23 04:20:00,80.0,69.3,29.92,South,180,0.0,4.0,70,0.00,,,0.00,Wunderground v.1.15,2013-08-23 09:20:00,
2013-08-23 04:25:00,80.0,69.3,29.92,South,180,0.0,4.0,70,0.00,,,0.00,Wunderground v.1.15,2013-08-23 09:25:00,
2013-08-23 04:30:00,79.9,69.7,29.92,South,180,0.0,0.0,71,0.00,,,0.00,Wunderground v.1.15,2013-08-23 09:30:00,
2013-08-23 04:40:00,79.8,69.6,29.92,South,180,0.0,0.0,71,0.00,,,0.00,Wunderground v.1.15,2013-08-23 09:40:00,
2013-08-23 04:45:00,79.8,69.6,29.92,South,180,0.0,0.0,71,0.00,,,0.00,Wunderground v.1.15,2013-08-23 09:45:00,
2013-08-23 04:50:00,79.8,70.0,29.92,South,180,0.0,0.0,72,0.00,,,0.00,Wunderground v.1.15,2013-08-23 09:50:00,
2013-08-23 04:55:00,79.8,70.0,29.92,South,180,0.0,0.0,72,0.00,,,0.00,Wunderground v.1.15,2013-08-23 09:55:00,
2013-08-23 05:00:00,79.8,70.0,29.92,South,180,0.0,0.0,72,0.00,,,0.00,Wunderground v.1.15,2013-08-23 10:00:00,
2013-08-23 05:10:00,79.8,70.0,29.93,South,180,0.0,2.0,72,0.00,,,0.00,Wunderground v.1.15,2013-08-23 10:10:00,
2013-08-23 05:15:00,79.7,69.9,29.93,South,180,0.0,2.0,72,0.00,,,0.00,Wunderground v.1.15,2013-08-23 10:15:00,
2013-08-23 05:25:00,79.6,70.2,29.93,South,180,0.0,0.0,73,0.00,,,0.00,Wunderground v.1.15,2013-08-23 10:25:00,
2013-08-23 05:30:00,79.6,70.2,29.93,South,180,0.0,0.0,73,0.00,,,0.00,Wunderground v.1.15,2013-08-23 10:30:00,
2013-08-23 05:35:00,79.5,70.1,29.93,South,180,0.0,0.0,73,0.00,,,0.00,Wunderground v.1.15,2013-08-23 10:35:00,
2013-08-23 05:40:00,79.4,70.4,29.93,South,180,0.0,0.0,74,0.00,,,0.00,Wunderground v.1.15,2013-08-23 10:40:00,
2013-08-23 05:50:00,79.2,70.2,29.93,South,180,0.0,0.0,74,0.00,,,0.00,Wunderground v.1.15,2013-08-23 10:50:00,
2013-08-23 05:55:00,79.1,70.1,29.94,South,180,0.0,0.0,74,0.00,,,0.00,Wunderground v.1.15,2013-08-23 10:55:00,
2013-08-23 06:00:00,79.0,70.0,29.94,South,180,0.0,0.0,74,0.00,,,0.00,Wunderground v.1.15,2013-08-23 11:00:00,
2013-08-23 06:10:00,78.8,69.8,29.94,South,180,0.0,0.0,74,0.00,,,0.00,Wunderground v.1.15,2013-08-23 11:10:00,
2013-08-23 06:15:00,78.7,70.1,29.94,South,180,0.0,0.0,75,0.00,,,0.00,Wunderground v.1.15,2013-08-23 11:15:00,
2013-08-23 06:20:00,78.6,70.0,29.94,South,180,0.0,0.0,75,0.00,,,0.00,Wunderground v.1.15,2013-08-23 11:20:00,
2013-08-23 06:25:00,78.5,69.9,29.94,South,180,0.0,0.0,75,0.00,,,0.00,Wunderground v.1.15,2013-08-23 11:25:00,
2013-08-23 06:30:00,78.4,69.8,29.95,South,180,0.0,0.0,75,0.00,,,0.00,Wunderground v.1.15,2013-08-23 11:30:00,
2013-08-23 06:40:00,78.3,69.7,29.95,South,180,0.0,0.0,75,0.00,,,0.00,Wunderground v.1.15,2013-08-23 11:40:00,
2013-08-23 06:45:00,78.3,70.1,29.95,South,180,0.0,0.0,76,0.00,,,0.00,Wunderground v.1.15,2013-08-23 11:45:00,
2013-08-23 06:50:00,78.2,70.0,29.95,South,180,1.0,1.0,76,0.00,,,0.00,Wunderground v.1.15,2013-08-23 11:50:00,
2013-08-23 06:55:00,78.1,69.9,29.95,South,180,1.0,5.0,76,0.00,,,0.00,Wunderground v.1.15,2013-08-23 11:55:00,
2013-08-23 07:00:00,78.0,69.8,29.95,South,171,1.0,1.0,76,0.00,,,0.00,Wunderground v.1.15,2013-08-23 12:00:00,
2013-08-23 07:10:00,78.0,70.2,29.95,SSE,168,0.0,0.0,77,0.00,,,0.00,Wunderground v.1.15,2013-08-23 12:10:00,
2013-08-23 07:15:00,78.0,70.2,29.96,SSE,168,0.0,0.0,77,0.00,,,0.00,Wunderground v.1.15,2013-08-23 12:15:00,
2013-08-23 07:25:00,78.2,70.8,29.96,SSE,168,1.0,1.0,78,0.00,,,0.00,Wunderground v.1.15,2013-08-23 12:25:00,
2013-08-23 07:30:00,78.4,71.0,29.96,SSE,168,0.0,0.0,78,0.00,,,0.00,Wunderground v.1.15,2013-08-23 12:30:00,
2013-08-23 07:35:00,78.5,71.1,29.96,SSE,168,0.0,0.0,78,0.00,,,0.00,Wunderground v.1.15,2013-08-23 12:35:00,
2013-08-23 07:45:00,79.0,71.6,29.97,SSE,168,1.0,1.0,78,0.00,,,0.00,Wunderground v.1.15,2013-08-23 12:45:00,
2013-08-23 07:50:00,79.3,71.8,29.97,SSE,168,1.0,1.0,78,0.00,,,0.00,Wunderground v.1.15,2013-08-23 12:50:00,
2013-08-23 07:55:00,79.6,72.1,29.97,SSE,161,1.0,5.0,78,0.00,,,0.00,Wunderground v.1.15,2013-08-23 12:55:00,
2013-08-23 08:00:00,79.8,71.9,29.97,SSE,161,2.0,2.0,77,0.00,,,0.00,Wunderground v.1.15,2013-08-23 13:00:00,
2013-08-23 08:10:00,80.2,72.3,29.98,SSE,163,1.0,1.0,77,0.00,,,0.00,Wunderground v.1.15,2013-08-23 13:10:00,
2013-08-23 08:15:00,80.4,72.5,29.98,SSE,161,1.0,1.0,77,0.00,,,0.00,Wunderground v.1.15,2013-08-23 13:15:00,
2013-08-23 08:20:00,80.6,72.3,29.98,SSE,157,1.0,1.0,76,0.00,,,0.00,Wunderground v.1.15,2013-08-23 13:20:00,
2013-08-23 08:25:00,80.9,73.0,29.98,SSE,167,1.0,7.0,77,0.00,,,0.00,Wunderground v.1.15,2013-08-23 13:25:00,
2013-08-23 08:35:00,81.7,73.0,29.98,SSE,163,1.0,2.0,75,0.00,,,0.00,Wunderground v.1.15,2013-08-23 13:35:00,
2013-08-23 08:40:00,82.3,73.6,29.98,SSE,167,1.0,1.0,75,0.00,,,0.00,Wunderground v.1.15,2013-08-23 13:40:00,
2013-08-23 08:45:00,82.9,73.8,29.98,SSE,167,1.0,7.0,74,0.00,,,0.00,Wunderground v.1.15,2013-08-23 13:45:00,
2013-08-23 08:50:00,83.5,73.9,29.98,SSE,165,1.0,1.0,73,0.00,,,0.00,Wunderground v.1.15,2013-08-23 13:50:00,
2013-08-23 08:55:00,84.1,74.1,29.98,SSE,165,1.0,1.0,72,0.00,,,0.00,Wunderground v.1.15,2013-08-23 13:55:00,
2013-08-23 09:00:00,84.7,73.8,29.98,SSE,165,0.0,0.0,70,0.00,,,0.00,Wunderground v.1.15,2013-08-23 14:00:00,
2013-08-23 09:10:00,85.3,73.5,29.97,South,179,1.0,1.0,68,0.00,,,0.00,Wunderground v.1.15,2013-08-23 14:10:00,
2013-08-23 09:20:00,86.1,73.9,29.97,South,179,0.0,0.0,67,0.00,,,0.00,Wunderground v.1.15,2013-08-23 14:20:00,
2013-08-23 09:25:00,86.7,74.4,29.98,South,179,0.0,0.0,67,0.00,,,0.00,Wunderground v.1.15,2013-08-23 14:25:00,
2013-08-23 09:30:00,87.3,74.5,29.98,South,179,0.0,0.0,66,0.00,,,0.00,Wunderground v.1.15,2013-08-23 14:30:00,
2013-08-23 09:35:00,87.8,74.1,29.97,South,179,0.0,0.0,64,0.00,,,0.00,Wunderground v.1.15,2013-08-23 14:35:00,
2013-08-23 09:40:00,87.7,74.5,29.97,South,179,0.0,0.0,65,0.00,,,0.00,Wunderground v.1.15,2013-08-23 14:40:00,
2013-08-23 09:50:00,88.3,74.1,29.97,SSW,208,1.0,1.0,63,0.00,,,0.00,Wunderground v.1.15,2013-08-23 14:50:00,
2013-08-23 09:55:00,88.6,73.9,29.97,SSW,193,1.0,5.0,62,0.00,,,0.00,Wunderground v.1.15,2013-08-23 14:55:00,
2013-08-23 10:00:00,88.7,74.0,29.98,South,187,1.0,1.0,62,0.00,,,0.00,Wunderground v.1.15,2013-08-23 15:00:00,
2013-08-23 10:10:00,89.2,73.5,29.98,SSW,196,2.0,5.0,60,0.00,,,0.00,Wunderground v.1.15,2013-08-23 15:10:00,
2013-08-23 10:15:00,89.4,73.7,29.98,SSW,208,2.0,5.0,60,0.00,,,0.00,Wunderground v.1.15,2013-08-23 15:15:00,
2013-08-23 10:20:00,89.9,73.1,29.98,SSW,207,1.0,1.0,58,0.00,,,0.00,Wunderground v.1.15,2013-08-23 15:20:00,
2013-08-23 10:30:00,90.5,73.7,29.98,SSW,196,2.0,2.0,58,0.00,,,0.00,Wunderground v.1.15,2013-08-23 15:30:00,
2013-08-23 10:35:00,91.1,73.7,29.98,SW,214,2.0,2.0,57,0.00,,,0.00,Wunderground v.1.15,2013-08-23 15:35:00,
2013-08-23 10:40:00,91.2,74.9,29.98,SSW,205,1.0,5.0,59,0.00,,,0.00,Wunderground v.1.15,2013-08-23 15:40:00,
2013-08-23 10:45:00,91.9,73.4,29.98,SSE,161,2.0,5.0,55,0.00,,,0.00,Wunderground v.1.15,2013-08-23 15:45:00,
2013-08-23 10:50:00,92.0,74.1,29.98,SSE,161,2.0,2.0,56,0.00,,,0.00,Wunderground v.1.15,2013-08-23 15:50:00,
2013-08-23 11:00:00,92.2,73.7,29.97,SSW,199,1.0,1.0,55,0.00,,,0.00,Wunderground v.1.15,2013-08-23 16:00:00,
2013-08-23 11:10:00,92.4,74.4,29.98,SSW,213,2.0,2.0,56,0.00,,,0.00,Wunderground v.1.15,2013-08-23 16:10:00,
2013-08-23 11:15:00,92.9,73.8,29.98,SW,220,1.0,7.0,54,0.00,,,0.00,Wunderground v.1.15,2013-08-23 16:15:00,
2013-08-23 11:20:00,92.7,74.2,29.98,SW,236,1.0,1.0,55,0.00,,,0.00,Wunderground v.1.15,2013-08-23 16:20:00,
2013-08-23 11:25:00,93.2,74.1,29.97,South,178,2.0,2.0,54,0.00,,,0.00,Wunderground v.1.15,2013-08-23 16:25:00,
2013-08-23 11:30:00,93.6,74.5,29.97,South,182,1.0,5.0,54,0.00,,,0.00,Wunderground v.1.15,2013-08-23 16:30:00,
2013-08-23 11:35:00,94.5,74.7,29.97,South,179,0.0,5.0,53,0.00,,,0.00,Wunderground v.1.15,2013-08-23 16:35:00,
2013-08-23 11:45:00,93.9,73.6,29.97,SSE,155,1.0,1.0,52,0.00,,,0.00,Wunderground v.1.15,2013-08-23 16:45:00,
2013-08-23 11:50:00,94.2,72.7,29.97,SSE,161,2.0,2.0,50,0.00,,,0.00,Wunderground v.1.15,2013-08-23 16:50:00,
2013-08-23 11:55:00,94.6,73.1,29.97,SSE,167,1.0,2.0,50,0.00,,,0.00,Wunderground v.1.15,2013-08-23 16:55:00,
2013-08-23 12:00:00,95.0,73.4,29.96,South,178,1.0,1.0,50,0.00,,,0.00,Wunderground v.1.15,2013-08-23 17:00:00,
2013-08-23 12:10:00,95.2,73.6,29.96,SE,124,2.0,5.0,50,0.00,,,0.00,Wunderground v.1.15,2013-08-23 17:10:00,
2013-08-23 12:15:00,96.0,73.1,29.96,ESE,117,3.0,5.0,48,0.00,,,0.00,Wunderground v.1.15,2013-08-23 17:15:00,
2013-08-23 12:25:00,95.3,72.5,29.96,SE,142,3.0,4.0,48,0.00,,,0.00,Wunderground v.1.15,2013-08-23 17:25:00,
2013-08-23 12:30:00,96.2,72.1,29.96,ENE,65,4.0,4.0,46,0.00,,,0.00,Wunderground v.1.15,2013-08-23 17:30:00,
2013-08-23 12:35:00,96.0,73.8,29.95,East,96,3.0,8.0,49,0.00,,,0.00,Wunderground v.1.15,2013-08-23 17:35:00,
2013-08-23 12:40:00,96.2,72.7,29.95,East,92,1.0,1.0,47,0.00,,,0.00,Wunderground v.1.15,2013-08-23 17:40:00,
2013-08-23 12:45:00,95.5,72.1,29.95,East,92,1.0,1.0,47,0.00,,,0.00,Wunderground v.1.15,2013-08-23 17:45:00,
2013-08-23 12:55:00,96.5,71.7,29.95,South,182,1.0,1.0,45,0.00,,,0.00,Wunderground v.1.15,2013-08-23 17:55:00,
2013-08-23 13:00:00,96.8,72.6,29.94,South,180,2.0,2.0,46,0.00,,,0.00,Wunderground v.1.15,2013-08-23 18:00:00,
2013-08-23 13:10:00,96.5,71.7,29.94,South,184,1.0,1.0,45,0.00,,,0.00,Wunderground v.1.15,2013-08-23 18:10:00,
2013-08-23 13:15:00,97.2,72.3,29.94,SE,124,1.0,7.0,45,0.00,,,0.00,Wunderground v.1.15,2013-08-23 18:15:00,
2013-08-23 13:20:00,97.6,74.0,29.94,ESE,107,4.0,4.0,47,0.00,,,0.00,Wunderground v.1.15,2013-08-23 18:20:00,
2013-08-23 13:25:00,97.7,72.8,29.93,East,100,4.0,4.0,45,0.00,,,0.00,Wunderground v.1.15,2013-08-23 18:25:00,
2013-08-23 13:30:00,97.7,72.1,29.93,ESE,123,3.0,5.0,44,0.00,,,0.00,Wunderground v.1.15,2013-08-23 18:30:00,
2013-08-23 13:40:00,97.4,72.5,29.93,ESE,123,0.0,0.0,45,0.00,,,0.00,Wunderground v.1.15,2013-08-23 18:40:00,
2013-08-23 13:45:00,96.8,70.6,29.92,ESE,123,0.0,0.0,43,0.00,,,0.00,Wunderground v.1.15,2013-08-23 18:45:00,
2013-08-23 13:50:00,97.2,71.7,29.92,SE,130,0.0,0.0,44,0.00,,,0.00,Wunderground v.1.15,2013-08-23 18:50:00,
2013-08-23 13:55:00,98.6,70.8,29.92,SSE,152,2.0,2.0,41,0.00,,,0.00,Wunderground v.1.15,2013-08-23 18:55:00,
2013-08-23 14:00:00,98.6,74.2,29.92,SE,126,5.0,5.0,46,0.00,,,0.00,Wunderground v.1.15,2013-08-23 19:00:00,
2013-08-23 14:10:00,98.5,73.5,29.92,SE,138,3.0,5.0,45,0.00,,,0.00,Wunderground v.1.15,2013-08-23 19:10:00,
2013-08-23 14:20:00,98.4,72.1,29.92,SSE,160,2.0,2.0,43,0.00,,,0.00,Wunderground v.1.15,2013-08-23 19:20:00,
2013-08-23 14:25:00,99.5,70.9,29.91,ESE,119,2.0,2.0,40,0.00,,,0.00,Wunderground v.1.15,2013-08-23 19:25:00,
2013-08-23 14:30:00,99.6,70.2,29.91,ESE,113,4.0,4.0,39,0.00,,,0.00,Wunderground v.1.15,2013-08-23 19:30:00,
2013-08-23 14:35:00,99.1,69.8,29.91,East,101,5.0,8.0,39,0.00,,,0.00,Wunderground v.1.15,2013-08-23 19:35:00,
2013-08-23 14:40:00,98.0,69.6,29.91,ESE,103,5.0,5.0,40,0.00,,,0.00,Wunderground v.1.15,2013-08-23 19:40:00,
2013-08-23 14:50:00,97.3,71.7,29.91,ESE,115,3.0,8.0,44,0.00,,,0.00,Wunderground v.1.15,2013-08-23 19:50:00,
2013-08-23 14:55:00,98.7,69.4,29.90,ESE,114,3.0,8.0,39,0.00,,,0.00,Wunderground v.1.15,2013-08-23 19:55:00,
2013-08-23 15:00:00,99.2,70.6,29.90,ESE,107,3.0,8.0,40,0.00,,,0.00,Wunderground v.1.15,2013-08-23 20:00:00,
2013-08-23 15:10:00,99.7,71.8,29.90,SE,133,6.0,7.0,41,0.00,,,0.00,Wunderground v.1.15,2013-08-23 20:10:00,
2013-08-23 15:15:00,100.1,71.4,29.89,SSE,147,6.0,7.0,40,0.00,,,0.00,Wunderground v.1.15,2013-08-23 20:15:00,
2013-08-23 15:20:00,99.9,70.5,29.89,SE,140,6.0,6.0,39,0.00,,,0.00,Wunderground v.1.15,2013-08-23 20:20:00,
2013-08-23 15:25:00,99.5,69.4,29.88,SE,142,3.0,6.0,38,0.00,,,0.00,Wunderground v.1.15,2013-08-23 20:25:00,
2013-08-23 15:35:00,100.4,70.2,29.88,East,80,1.0,3.0,38,0.00,,,0.00,Wunderground v.1.15,2013-08-23 20:35:00,
2013-08-23 15:40:00,100.9,70.6,29.88,ESE,123,3.0,5.0,38,0.00,,,0.00,Wunderground v.1.15,2013-08-23 20:40:00,
2013-08-23 15:45:00,100.4,68.6,29.87,SSE,164,5.0,6.0,36,0.00,,,0.00,Wunderground v.1.15,2013-08-23 20:45:00,
2013-08-23 15:50:00,100.1,69.1,29.87,South,175,6.0,6.0,37,0.00,,,0.00,Wunderground v.1.15,2013-08-23 20:50:00,
2013-08-23 15:55:00,100.6,68.8,29.87,SSE,155,4.0,6.0,36,0.00,,,0.00,Wunderground v.1.15,2013-08-23 20:55:00,
2013-08-23 16:00:00,100.2,69.2,29.87,SSE,164,3.0,3.0,37,0.00,,,0.00,Wunderground v.1.15,2013-08-23 21:00:00,
2013-08-23 16:10:00,100.6,68.8,29.86,ESE,104,4.0,4.0,36,0.00,,,0.00,Wunderground v.1.15,2013-08-23 21:10:00,
2013-08-23 16:15:00,101.0,69.1,29.86,East,89,5.0,6.0,36,0.00,,,0.00,Wunderground v.1.15,2013-08-23 21:15:00,
2013-08-23 16:20:00,101.2,70.1,29.86,SE,124,6.0,8.0,37,0.00,,,0.00,Wunderground v.1.15,2013-08-23 21:20:00,
2013-08-23 16:25:00,100.7,68.0,29.86,ESE,106,6.0,8.0,35,0.00,,,0.00,Wunderground v.1.15,2013-08-23 21:25:00,
2013-08-23 16:30:00,100.1,67.5,29.85,East,94,6.0,6.0,35,0.00,,,0.00,Wunderground v.1.15,2013-08-23 21:30:00,
2013-08-23 16:40:00,100.3,67.7,29.85,East,84,5.0,8.0,35,0.00,,,0.00,Wunderground v.1.15,2013-08-23 21:40:00,
2013-08-23 16:45:00,100.6,68.8,29.85,ENE,77,6.0,8.0,36,0.00,,,0.00,Wunderground v.1.15,2013-08-23 21:45:00,
2013-08-23 16:50:00,100.9,68.2,29.85,East,85,6.0,6.0,35,0.00,,,0.00,Wunderground v.1.15,2013-08-23 21:50:00,
2013-08-23 16:55:00,101.0,69.1,29.85,ESE,105,4.0,9.0,36,0.00,,,0.00,Wunderground v.1.15,2013-08-23 21:55:00,
2013-08-23 17:00:00,100.8,67.3,29.85,ESE,122,6.0,6.0,34,0.00,,,0.00,Wunderground v.1.15,2013-08-23 22:00:00,
2013-08-23 17:10:00,100.8,68.1,29.85,SE,142,5.0,5.0,35,0.00,,,0.00,Wunderground v.1.15,2013-08-23 22:10:00,
2013-08-23 17:15:00,101.0,67.5,29.84,SE,142,4.0,5.0,34,0.00,,,0.00,Wunderground v.1.15,2013-08-23 22:15:00,
2013-08-23 17:25:00,101.2,67.6,29.84,East,95,6.0,8.0,34,0.00,,,0.00,Wunderground v.1.15,2013-08-23 22:25:00,
2013-08-23 17:30:00,101.4,68.7,29.84,ESE,117,4.0,12.0,35,0.00,,,0.00,Wunderground v.1.15,2013-08-23 22:30:00,
2013-08-23 17:35:00,101.4,67.8,29.85,ESE,119,5.0,12.0,34,0.00,,,0.00,Wunderground v.1.15,2013-08-23 22:35:00,
2013-08-23 17:40:00,101.3,68.6,29.84,SE,142,7.0,7.0,35,0.00,,,0.00,Wunderground v.1.15,2013-08-23 22:40:00,
2013-08-23 17:50:00,100.7,67.2,29.85,ESE,108,5.0,6.0,34,0.00,,,0.00,Wunderground v.1.15,2013-08-23 22:50:00,
2013-08-23 17:55:00,100.2,67.6,29.84,ESE,109,4.0,6.0,35,0.00,,,0.00,Wunderground v.1.15,2013-08-23 22:55:00,
2013-08-23 18:00:00,100.0,66.6,29.84,ESE,113,3.0,5.0,34,0.00,,,0.00,Wunderground v.1.15,2013-08-23 23:00:00,
2013-08-23 18:10:00,100.1,68.3,29.84,ESE,108,4.0,12.0,36,0.00,,,0.00,Wunderground v.1.15,2013-08-23 23:10:00,
2013-08-23 18:15:00,100.0,66.6,29.84,ESE,107,6.0,12.0,34,0.00,,,0.00,Wunderground v.1.15,2013-08-23 23:15:00,
2013-08-23 18:20:00,99.8,66.4,29.84,ESE,111,7.0,7.0,34,0.00,,,0.00,Wunderground v.1.15,2013-08-23 23:20:00,
2013-08-23 18:25:00,99.6,66.2,29.84,East,90,5.0,7.0,34,0.00,,,0.00,Wunderground v.1.15,2013-08-23 23:25:00,
2013-08-23 18:35:00,99.6,67.1,29.84,East,101,3.0,3.0,35,0.00,,,0.00,Wunderground v.1.15,2013-08-23 23:35:00,
2013-08-23 18:40:00,99.4,66.1,29.85,ESE,105,3.0,7.0,34,0.00,,,0.00,Wunderground v.1.15,2013-08-23 23:40:00,
2013-08-23 18:45:00,99.3,66.0,29.84,ESE,105,1.0,7.0,34,0.00,,,0.00,Wunderground v.1.15,2013-08-23 23:45:00,
2013-08-23 18:50:00,99.2,65.9,29.84,ESE,105,1.0,1.0,34,0.00,,,0.00,Wunderground v.1.15,2013-08-23 23:50:00,
2013-08-23 18:55:00,99.1,66.6,29.83,ESE,105,1.0,1.0,35,0.00,,,0.00,Wunderground v.1.15,2013-08-23 23:55:00,
2013-08-23 19:00:00,98.8,67.2,29.84,ESE,109,0.0,7.0,36,0.00,,,0.00,Wunderground v.1.15,2013-08-24 00:00:00,
2013-08-23 19:10:00,97.8,66.3,29.84,SE,140,6.0,6.0,36,0.00,,,0.00,Wunderground v.1.15,2013-08-24 00:10:00,
2013-08-23 19:15:00,97.1,66.5,29.83,SE,140,4.0,6.0,37,0.00,,,0.00,Wunderground v.1.15,2013-08-24 00:15:00,
2013-08-23 19:25:00,96.1,66.4,29.84,SE,143,3.0,7.0,38,0.00,,,0.00,Wunderground v.1.15,2013-08-24 00:25:00,
2013-08-23 19:30:00,95.6,66.7,29.84,SE,142,1.0,1.0,39,0.00,,,0.00,Wunderground v.1.15,2013-08-24 00:30:00,
2013-08-23 19:35:00,95.4,66.5,29.84,SE,139,0.0,1.0,39,0.00,,,0.00,Wunderground v.1.15,2013-08-24 00:35:00,
2013-08-23 19:40:00,95.0,66.2,29.85,ESE,115,2.0,2.0,39,0.00,,,0.00,Wunderground v.1.15,2013-08-24 00:40:00,
2013-08-23 19:50:00,94.5,66.4,29.85,ESE,117,1.0,1.0,40,0.00,,,0.00,Wunderground v.1.15,2013-08-24 00:50:00,
2013-08-23 19:55:00,94.1,66.8,29.85,ESE,117,1.0,4.0,41,0.00,,,0.00,Wunderground v.1.15,2013-08-24 00:55:00,
2013-08-23 20:00:00,93.8,67.2,29.85,ESE,117,0.0,0.0,42,0.00,,,0.00,Wunderground v.1.15,2013-08-24 01:00:00,
2013-08-23 20:10:00,93.1,66.6,29.85,ESE,117,0.0,0.0,42,0.00,,,0.00,Wunderground v.1.15,2013-08-24 01:10:00,
2013-08-23 20:15:00,92.8,66.3,29.85,ESE,117,0.0,0.0,42,0.00,,,0.00,Wunderground v.1.15,2013-08-24 01:15:00,
2013-08-23 20:20:00,92.4,66.7,29.86,ESE,117,0.0,0.0,43,0.00,,,0.00,Wunderground v.1.15,2013-08-24 01:20:00,
2013-08-23 20:30:00,91.7,66.7,29.86,ESE,117,0.0,0.0,44,0.00,,,0.00,Wunderground v.1.15,2013-08-24 01:30:00,
2013-08-23 20:35:00,91.3,67.0,29.86,ESE,117,0.0,0.0,45,0.00,,,0.00,Wunderground v.1.15,2013-08-24 01:35:00,
2013-08-23 20:40:00,91.0,66.7,29.86,ESE,117,0.0,0.0,45,0.00,,,0.00,Wunderground v.1.15,2013-08-24 01:40:00,
2013-08-23 20:45:00,90.6,67.0,29.86,ESE,117,0.0,0.0,46,0.00,,,0.00,Wunderground v.1.15,2013-08-24 01:45:00,
2013-08-23 20:50:00,90.3,66.7,29.87,ESE,117,0.0,0.0,46,0.00,,,0.00,Wunderground v.1.15,2013-08-24 01:50:00,
2013-08-23 21:00:00,89.6,66.7,29.87,ESE,117,0.0,0.0,47,0.00,,,0.00,Wunderground v.1.15,2013-08-24 02:00:00,
2013-08-23 21:10:00,89.1,66.9,29.87,ESE,117,0.0,0.0,48,0.00,,,0.00,Wunderground v.1.15,2013-08-24 02:10:00,
2013-08-23 21:20:00,88.9,66.7,29.88,East,80,2.0,4.0,48,0.00,,,0.00,Wunderground v.1.15,2013-08-24 02:20:00,
2013-08-23 21:25:00,89.0,67.4,29.89,East,80,2.0,4.0,49,0.00,,,0.00,Wunderground v.1.15,2013-08-24 02:25:00,
2013-08-23 21:30:00,89.0,67.4,29.89,East,80,1.0,1.0,49,0.00,,,0.00,Wunderground v.1.15,2013-08-24 02:30:00,
2013-08-23 21:40:00,88.8,67.8,29.89,East,81,0.0,0.0,50,0.00,,,0.00,Wunderground v.1.15,2013-08-24 02:40:00,
2013-08-23 21:45:00,88.6,67.6,29.90,East,82,1.0,1.0,50,0.00,,,0.00,Wunderground v.1.15,2013-08-24 02:45:00,
2013-08-23 21:50:00,88.4,67.4,29.90,East,84,1.0,1.0,50,0.00,,,0.00,Wunderground v.1.15,2013-08-24 02:50:00,
2013-08-23 21:55:00,88.3,67.9,29.90,East,84,1.0,1.0,51,0.00,,,0.00,Wunderground v.1.15,2013-08-24 02:55:00,
2013-08-23 22:00:00,88.2,67.8,29.91,East,83,1.0,1.0,51,0.00,,,0.00,Wunderground v.1.15,2013-08-24 03:00:00,
2013-08-23 22:10:00,87.9,68.1,29.91,East,83,0.0,0.0,52,0.00,,,0.00,Wunderground v.1.15,2013-08-24 03:10:00,
2013-08-23 22:20:00,87.5,68.3,29.91,East,83,0.0,0.0,53,0.00,,,0.00,Wunderground v.1.15,2013-08-24 03:20:00,
2013-08-23 22:25:00,87.3,68.1,29.91,East,83,0.0,0.0,53,0.00,,,0.00,Wunderground v.1.15,2013-08-24 03:25:00,
2013-08-23 22:30:00,87.1,68.4,29.91,East,83,0.0,0.0,54,0.00,,,0.00,Wunderground v.1.15,2013-08-24 03:30:00,
2013-08-23 22:35:00,86.9,68.3,29.91,East,83,0.0,0.0,54,0.00,,,0.00,Wunderground v.1.15,2013-08-24 03:35:00,
2013-08-23 22:40:00,86.7,68.6,29.91,East,83,0.0,1.0,55,0.00,,,0.00,Wunderground v.1.15,2013-08-24 03:40:00,
2013-08-23 22:50:00,86.6,68.0,29.91,East,93,1.0,1.0,54,0.00,,,0.00,Wunderground v.1.15,2013-08-24 03:50:00,
2013-08-23 22:55:00,86.6,68.0,29.91,East,92,1.0,1.0,54,0.00,,,0.00,Wunderground v.1.15,2013-08-24 03:55:00,
2013-08-23 23:00:00,86.5,67.9,29.92,East,92,0.0,0.0,54,0.00,,,0.00,Wunderground v.1.15,2013-08-24 04:00:00,
2013-08-23 23:05:00,86.4,68.3,29.91,East,92,0.0,0.0,55,0.00,,,0.00,Wunderground v.1.15,2013-08-24 04:05:00,
2013-08-23 23:10:00,86.3,67.7,29.92,East,92,0.0,0.0,54,0.00,,,0.00,Wunderground v.1.15,2013-08-24 04:10:00,
2013-08-23 23:15:00,86.2,68.1,29.91,East,92,0.0,0.0,55,0.00,,,0.00,Wunderground v.1.15,2013-08-24 04:15:00,
2013-08-23 23:20:00,86.1,68.0,29.91,East,88,1.0,1.0,55,0.00,,,0.00,Wunderground v.1.15,2013-08-24 04:20:00,
2013-08-23 23:25:00,86.0,67.4,29.91,East,88,1.0,1.0,54,0.00,,,0.00,Wunderground v.1.15,2013-08-24 04:25:00,
2013-08-23 23:30:00,86.0,67.4,29.91,East,85,1.0,1.0,54,0.00,,,0.00,Wunderground v.1.15,2013-08-24 04:30:00,
2013-08-23 23:40:00,85.9,67.9,29.91,ENE,63,1.0,5.0,55,0.00,,,0.00,Wunderground v.1.15,2013-08-24 04:40:00,
2013-08-23 23:45:00,85.9,67.9,29.91,ENE,65,2.0,5.0,55,0.00,,,0.00,Wunderground v.1.15,2013-08-24 04:45:00,
2013-08-23 23:50:00,86.0,68.0,29.91,ENE,57,2.0,2.0,55,0.00,,,0.00,Wunderground v.1.15,2013-08-24 04:50:00,